Weather History for Sivas, Turkey

Change the Weather History Date:

Sunday, June 23, 2013

  Actual Average Record
Temperature  
Mean Temperature 66 °F -  
Max Temperature 85 °F 79 °F - ()
Min Temperature 46 °F 52 °F - ()
Growing Degree Days 16 (Base 50)    
Moisture  
Dew Point 39 °F    
Average Humidity 46    
Maximum Humidity 87    
Minimum Humidity 6    
Precipitation  
Precipitation 0.00 in 0.02 in - ()
Sea Level Pressure  
Sea Level Pressure 30.04 in    
Wind  
Wind Speed 5 mph ()    
Max Wind Speed 20 mph    
Max Gust Speed -    
Visibility 9.0 miles    
Events      
T = Trace of Precipitation, MM = Missing Value Source: Averaged Metar Reports

Daily Weather History Graph

Daily Weather History Graph

Search for Another Location

Airport:

Trip Planner

Search our weather history database for the weather conditions in past years. The results will help you decide how hot, cold, wet, or windy it might be!

Date:

Astronomy

Jun. 23, 2013 Rise Set
Actual Time 5:04 AM EEST 8:04 PM EEST
Civil Twilight 4:32 AM EEST 8:37 PM EEST
Nautical Twilight 3:50 AM EEST 9:18 PM EEST
Astronomical Twilight 3:02 AM EEST 10:06 PM EEST
Moon 7:57 PM EEST (6/23) 4:58 AM EEST (6/23)
Length of Visible Light 16h 04m
Length of Day
14h 59m
Full, 100% of the Moon is Illuminated
Jun 23
Full
Jun 23
Full
Jun 30
Last Quarter
Jul 8
New
Jul 16
First Quarter

Hourly Weather History & Observations

Time (EEST) Temp. Windchill Dew Point Humidity Pressure Visibility Wind Dir Wind Speed Gust Speed Precip Events Conditions
12:50 AM 46.4 °F 44.3 °F 41.0 °F 81% 30.06 in - NNW 4.6 mph - N/A   Clear
2:50 AM 42.8 °F 41.1 °F 39.2 °F 87% 30.06 in - West 3.5 mph - N/A   Clear
3:50 AM 41.0 °F - 35.6 °F 81% 30.04 in - Calm Calm - N/A   Clear
4:50 AM 41.0 °F - 37.4 °F 87% 30.06 in - Calm Calm - N/A   Clear
5:50 AM 44.6 °F - 35.6 °F 71% 30.06 in - Calm Calm - N/A   Clear
6:50 AM 53.6 °F - 42.8 °F 67% 30.06 in - ESE 3.5 mph - N/A   Clear
7:50 AM 60.8 °F - 39.2 °F 45% 30.06 in - Variable 2.3 mph - N/A   Clear
8:50 AM 62.6 °F - 41.0 °F 45% 30.06 in - ENE 5.8 mph - N/A   Clear
9:00 AM 63 °F - 43 °F 36%  in 9 mi ESE 1.2 mph - -  
9:50 AM 66.2 °F - 41.0 °F 40% 30.06 in - SE 5.8 mph - N/A   Clear
10:50 AM 69.8 °F - 35.6 °F 28% 30.06 in - ENE 6.9 mph - N/A   Clear
11:50 AM 73.4 °F - 35.6 °F 25% 30.04 in - Variable 5.8 mph - N/A   Clear
12:50 PM 73.4 °F - 39.2 °F 29% 30.04 in - West 5.8 mph - N/A   Clear
1:50 PM 77.0 °F - 37.4 °F 24% 30.04 in - NNW 8.1 mph - N/A   Clear
2:50 PM 77.0 °F - 32.0 °F 19% 30.04 in - Variable 6.9 mph - N/A   Clear
3:00 PM 83 °F - 26 °F 6%  in 9 mi SE 3.5 mph - -  
3:50 PM 77.0 °F - 35.6 °F 22% 30.01 in - NNW 10.4 mph - N/A   Clear
4:50 PM 77.0 °F - 41.0 °F 28% 30.01 in - North 16.1 mph - N/A   Clear
5:50 PM 73.4 °F - 42.8 °F 33% 30.01 in - North 19.6 mph - N/A   Clear
6:50 PM 69.8 °F - 44.6 °F 40% 30.01 in - North 16.1 mph - N/A   Clear
7:50 PM 66.2 °F - 48.2 °F 52% 30.04 in - North 12.7 mph - N/A   Clear
8:50 PM 62.6 °F - 48.2 °F 59% 30.04 in - North 11.5 mph - N/A   Clear
9:00 PM 69 °F - 44 °F 30%  in 9 mi NNE 2.3 mph - -  
9:50 PM 59.0 °F - 44.6 °F 59% 30.04 in - North 8.1 mph - N/A   Clear
10:50 PM 55.4 °F - 37.4 °F 51% 30.04 in - North 4.6 mph - N/A   Clear
11:50 PM 57.2 °F - 35.6 °F 44% 30.01 in - NNE 3.5 mph - N/A   Clear